Concordia, KS

7:10 AM CST on December 06, 2019 (GMT -0600)
Blosser Municipal

Weather History for KCNK - October, 2019

Change the Weather History Date:

Tuesday, October 1, 2019

  Actual Average Record
Temperature  
Mean Temperature 70 °F 61 °F  
Max Temperature 84 °F 73 °F 94 °F (2002)
Min Temperature 57 °F 49 °F 33 °F (1985)
Degree Days  
Heating Degree Days 0 6  
Month to date heating degree days 6  
Since 1 July heating degree days 79  
Cooling Degree Days 6 2  
Month to date cooling degree days 2  
Year to date cooling degree days 1328  
Growing Degree Days 20 (Base 50)    
Moisture  
Dew Point 69 °F    
Average Humidity 86    
Maximum Humidity 94    
Minimum Humidity 67    
Precipitation  
Precipitation 0.43 in 0.08 in 3.10 in (1950)
Month to date precipitation 0.08  
Year to date precipitation 24.09  
Snow  
Snow 0.00 in 0.00 in 0.00 in ()
Month to date snowfall 0.0  
Year to date snowfall 13.7  
Since 1 July snowfall 0.0  
Snow Depth -    
Sea Level Pressure  
Sea Level Pressure 29.83 in    
Wind  
Wind Speed 12 mph (WSW)    
Max Wind Speed 18 mph    
Max Gust Speed 31 mph    
Visibility 8 miles    
Events Rain , Thunderstorm    
T = Trace of Precipitation, MM = Missing Value Source: NWS Daily Summary

Daily Weather History Graph

Daily Weather History Graph

Search for Another Location

Airport or City:

Astronomy

Oct. 01, 2019 Rise Set
Actual Time 7:26 AM CDT 7:13 PM CDT
Civil Twilight 6:59 AM CDT 7:40 PM CDT
Nautical Twilight 6:28 AM CDT 8:11 PM CDT
Astronomical Twilight 5:57 AM CDT 8:42 PM CDT
Moon 10:43 AM CDT (10/1) 9:28 PM CDT (10/1)
Length of Visible Light 12h 40m
Length of Day
11h 46m
Waxing Crescent, 12% of the Moon is Illuminated
Oct 1
Waxing Crescent
Oct 5
First Quarter
Oct 13
Full
Oct 21
Last Quarter
Oct 27
New

Hourly Weather History & Observations

Time (CDT) Temp. Heat Index Dew Point Humidity Pressure Visibility Wind Dir Wind Speed Gust Speed Precip Events Conditions
12:55 AM 80.1 °F 83.6 °F 71.1 °F 74% 29.77 in 10.0 mi South 13.8 mph 25.3 mph N/A   Clear
1:55 AM 79.0 °F - 71.1 °F 77% 29.77 in 10.0 mi South 17.3 mph 29.9 mph N/A   Clear
2:55 AM 78.1 °F - 71.1 °F 79% 29.78 in 10.0 mi South 15.0 mph 28.8 mph N/A   Clear
3:55 AM 78.1 °F - 72.0 °F 81% 29.77 in 10.0 mi South 17.3 mph 29.9 mph N/A   Clear
4:55 AM 77.0 °F - 72.0 °F 84% 29.79 in 10.0 mi South 15.0 mph 24.2 mph N/A   Clear
5:55 AM 78.1 °F - 72.0 °F 81% 29.81 in 10.0 mi SSW 12.7 mph - N/A   Overcast
6:55 AM 77.0 °F - 71.1 °F 82% 29.82 in 10.0 mi SSW 15.0 mph - N/A   Scattered Clouds
7:55 AM 78.1 °F - 71.1 °F 79% 29.82 in 10.0 mi South 12.7 mph - N/A   Overcast
8:55 AM 78.1 °F - 71.1 °F 79% 29.81 in 10.0 mi South 15.0 mph 23.0 mph N/A   Overcast
9:36 AM 75.9 °F - 72.0 °F 87% 29.88 in 7.0 mi SSW 12.7 mph - 0.01 in Rain , Thunderstorm Light Rain
9:52 AM 75.2 °F - 71.6 °F 89% 29.88 in 10.0 mi WSW 3.5 mph - 0.01 in Rain , Thunderstorm Light Rain
9:55 AM 75.9 °F - 72.0 °F 87% 29.84 in 10.0 mi SW 3.5 mph - 0.01 in Rain , Thunderstorm Light Rain
10:07 AM 75.0 °F - 71.1 °F 87% 29.91 in 10.0 mi WSW 18.4 mph 27.6 mph 0.00 in Rain Light Rain
10:14 AM 73.0 °F - 68.0 °F 84% 29.91 in 10.0 mi West 15.0 mph 28.8 mph 0.00 in Rain , Thunderstorm Light Rain
10:20 AM 71.1 °F - 68.0 °F 90% 29.91 in 9.0 mi West 10.4 mph 20.7 mph 0.01 in Rain , Thunderstorm Light Rain
10:36 AM 71.1 °F - 68.0 °F 90% 29.90 in 10.0 mi SW 4.6 mph - 0.01 in Rain Light Rain
10:55 AM 72.0 °F - 69.1 °F 91% 29.85 in 10.0 mi Calm Calm - 0.01 in   Overcast
11:55 AM 73.9 °F - 69.1 °F 85% 29.83 in 10.0 mi North - - N/A   Overcast
12:15 PM 75.0 °F - 69.1 °F 82% 29.87 in 10.0 mi ESE 4.6 mph - N/A   Overcast
12:55 PM 78.1 °F - 70.0 °F 76% 29.81 in 10.0 mi ESE 3.5 mph - N/A   Mostly Cloudy
1:55 PM 84.0 °F 90.2 °F 73.0 °F 69% 29.75 in 10.0 mi South 6.9 mph - N/A   Mostly Cloudy
2:16 PM 84.0 °F 89.6 °F 72.0 °F 67% 29.77 in 10.0 mi South 10.4 mph 17.3 mph N/A Thunderstorm Mostly Cloudy
2:35 PM 80.1 °F 84.2 °F 73.0 °F 79% 29.80 in 8.0 mi WNW 16.1 mph 26.5 mph 0.00 in Rain , Thunderstorm Light Thunderstorms and Rain
2:44 PM 75.0 °F - 72.0 °F 90% 29.80 in 6.0 mi West 15.0 mph 31.1 mph 0.00 in Rain , Thunderstorm Light Thunderstorms and Rain
2:53 PM 75.2 °F - 73.4 °F 94% 29.81 in 1.8 mi WSW 16.1 mph 29.9 mph 0.08 in Rain , Thunderstorm Thunderstorms and Rain
2:54 PM 75.0 °F - 73.0 °F 94% 29.76 in 2.0 mi SW 16.1 mph 29.9 mph 0.08 in Rain , Thunderstorm Thunderstorms and Rain
2:59 PM 75.0 °F - 72.0 °F 90% 29.81 in 4.0 mi SSW 11.5 mph 28.8 mph 0.01 in Rain , Thunderstorm Light Thunderstorms and Rain
3:07 PM 77.0 °F - 73.9 °F 90% 29.81 in 10.0 mi WSW 10.4 mph - 0.01 in Rain , Thunderstorm Light Rain
3:29 PM 77.0 °F - 73.0 °F 88% 29.81 in 10.0 mi West 11.5 mph - 0.01 in Rain , Thunderstorm Light Thunderstorms and Rain
3:44 PM 75.9 °F - 73.0 °F 91% 29.82 in 1.8 mi WSW 9.2 mph - 0.04 in Rain , Thunderstorm Heavy Thunderstorms and Rain
3:47 PM 75.9 °F - 73.0 °F 91% 29.82 in 1.2 mi West 12.7 mph 18.4 mph 0.08 in Rain , Thunderstorm Heavy Thunderstorms and Rain
3:55 PM 75.0 °F - 72.0 °F 90% 29.77 in 1.0 mi West 13.8 mph 21.9 mph 0.19 in Rain , Thunderstorm Heavy Thunderstorms and Rain
3:59 PM 75.0 °F - 72.0 °F 90% 29.82 in 1.5 mi West 18.4 mph 27.6 mph 0.01 in Rain , Thunderstorm Rain
4:02 PM 75.0 °F - 71.1 °F 87% 29.81 in 3.0 mi West 15.0 mph 27.6 mph 0.02 in Rain , Thunderstorm Light Rain
4:06 PM 75.0 °F - 70.0 °F 84% 29.82 in 5.0 mi West 13.8 mph 27.6 mph 0.02 in Rain Light Rain
4:14 PM 75.0 °F - 70.0 °F 84% 29.82 in 10.0 mi West 12.7 mph - 0.02 in   Overcast
4:55 PM 73.0 °F - 70.0 °F 90% 29.76 in 5.0 mi West 11.5 mph - 0.09 in Rain Rain
5:46 PM 73.0 °F - 71.1 °F 93% 29.80 in 10.0 mi WNW 6.9 mph - 0.03 in Rain Light Rain
5:55 PM 73.0 °F - 70.0 °F 90% 29.76 in 10.0 mi North 4.6 mph - 0.03 in   Overcast
6:55 PM 69.1 °F - 66.9 °F 93% 29.79 in 10.0 mi North 11.5 mph - 0.04 in   Overcast
7:55 PM 62.1 °F - 60.1 °F 93% 29.84 in 10.0 mi NNW 11.5 mph 23.0 mph 0.00 in Rain Light Rain
8:15 PM 61.0 °F - 59.0 °F 93% 29.89 in 10.0 mi NNW 9.2 mph - 0.00 in Rain Light Rain
8:23 PM 61.0 °F - 57.9 °F 90% 29.90 in 10.0 mi North 10.4 mph 18.4 mph 0.00 in   Overcast
8:55 PM 60.1 °F - 57.9 °F 93% 29.88 in 10.0 mi NNW 6.9 mph - 0.00 in Rain Light Rain
9:55 PM 59.0 °F - 57.0 °F 93% 29.90 in 10.0 mi NNW 6.9 mph - 0.02 in   Overcast
10:13 PM 59.0 °F - 57.0 °F 93% 29.93 in 10.0 mi NNW 9.2 mph - N/A   Overcast
10:55 PM 57.9 °F - 55.0 °F 90% 29.91 in 10.0 mi North 9.2 mph - N/A   Overcast
11:55 PM 57.0 °F - 54.0 °F 89% 29.92 in 10.0 mi North 10.4 mph - N/A   Overcast